FW8733 Weather Reports


Display with metric or nautical units.
time (UTC)temp
F
wind
direction
speed
MPH
gust
MPH
rain 1hr
in
rain 24hr
in
rain mn
in
humidity
%
barometer
mb
20260502160949 66 255 1.0 1.0 0.00 0.00 0.00 71 1026.7
20260502160446 67 261 0.0 1.0 0.00 0.00 0.00 68 1026.7
20260502151930 64 252 1.0 2.0 0.00 0.00 0.00 75 1026.7
20260502151426 64 253 1.0 1.0 0.00 0.00 0.00 74 1026.8
20260502150924 64 254 0.0 1.0 0.00 0.00 0.00 77 1026.9
20260502150420 64 235 0.0 0.0 0.00 0.00 0.00 76 1026.5
20260502130306 53 235 0.0 0.0 0.00 0.00 0.00 99 1025.5
20260502123751 51 246 0.0 0.0 0.00 0.00 0.00 99 1025.2
20260502123248 51 254 0.0 0.0 0.00 0.00 0.00 99 1025.0
20260502122745 51 252 0.0 0.0 0.00 0.00 0.00 99 1025.2
20260502122241 50 252 0.0 0.0 0.00 0.00 0.00 99 1025.0
20260502121740 50 242 0.0 0.0 0.00 0.00 0.00 99 1024.9
20260502121237 51 242 0.0 0.0 0.00 0.00 0.00 99 1024.7
20260502120733 50 242 0.0 0.0 0.00 0.00 0.00 99 1024.6
20260502120230 50 242 0.0 0.0 0.00 0.00 0.00 99 1024.5
20260502115728 50 242 0.0 0.0 0.00 0.00 0.00 99 1024.4
20260502115225 50 242 0.0 0.0 0.00 0.00 0.00 99 1024.3
20260502114720 50 242 0.0 0.0 0.00 0.00 0.00 99 1024.1
20260502114218 50 242 0.0 0.0 0.00 0.00 0.00 99 1024.2
20260502113715 50 242 0.0 0.0 0.00 0.00 0.00 99 1024.2
20260502113213 50 242 0.0 0.0 0.00 0.00 0.00 99 1023.9
20260502112711 50 242 0.0 0.0 0.00 0.00 0.00 99 1023.8
20260502112208 50 242 0.0 0.0 0.00 0.00 0.00 99 1024.1
20260502111705 50 242 0.0 0.0 0.00 0.00 0.00 99 1023.8
20260502111203 50 242 0.0 0.0 0.00 0.00 0.00 99 1023.9
20260502110700 50 243 0.0 0.0 0.00 0.00 0.00 99 1024.0
20260502110157 50 242 0.0 0.0 0.00 0.00 0.00 99 1023.8
20260502105655 50 242 0.0 0.0 0.00 0.00 0.00 99 1023.7
20260502105152 50 242 0.0 0.0 0.00 0.00 0.00 99 1023.7
20260502104649 50 242 0.0 0.0 0.00 0.00 0.00 99 1023.6
20260502104147 50 242 0.0 0.0 0.00 0.00 0.00 99 1023.6
20260502103644 50 243 0.0 0.0 0.00 0.00 0.00 98 1023.3
20260502103141 50 242 0.0 0.0 0.00 0.00 0.00 98 1023.5
20260502102638 50 242 0.0 0.0 0.00 0.00 0.00 98 1023.4
20260502102135 50 242 0.0 0.0 0.00 0.00 0.00 98 1023.1
20260502101633 50 242 0.0 0.0 0.00 0.00 0.00 98 1023.1
20260502101131 50 243 0.0 0.0 0.00 0.00 0.00 98 1023.0
20260502100629 50 242 0.0 0.0 0.00 0.00 0.00 98 1023.0
20260502100127 50 242 0.0 0.0 0.00 0.00 0.00 98 1022.9
20260502091101 50 253 0.0 0.0 0.00 0.00 0.00 98 1022.6
20260502090558 50 249 0.0 0.0 0.00 0.00 0.00 99 1022.3
20260502071458 51 249 0.0 0.0 0.00 0.00 0.00 99 1022.1
20260502070956 52 249 0.0 0.0 0.00 0.00 0.00 99 1022.2
20260502070454 52 249 0.0 0.0 0.00 0.00 0.00 99 1022.3
20260502065952 52 249 0.0 0.0 0.00 0.00 0.00 99 1022.2
20260502065451 52 245 0.0 0.0 0.00 0.00 0.00 99 1022.0
20260502064948 52 245 0.0 0.0 0.00 0.00 0.00 99 1022.3
20260502064446 52 245 0.0 0.0 0.00 0.00 0.00 99 1022.0
20260502063943 52 245 0.0 0.0 0.00 0.00 0.00 99 1021.9
20260502063441 52 246 0.0 0.0 0.00 0.00 0.00 99 1022.0
20260502062938 52 245 0.0 0.0 0.00 0.00 0.00 99 1021.9
20260502062435 52 244 0.0 0.0 0.00 0.00 0.00 99 1022.0
20260502061934 52 245 0.0 0.0 0.00 0.00 0.00 99 1022.3
20260502061431 52 245 0.0 0.0 0.00 0.00 0.00 99 1022.1
20260502060927 52 245 0.0 0.0 0.00 0.00 0.00 99 1022.3
20260502060422 52 245 0.0 0.0 0.00 0.00 0.00 99 1022.1
20260502055920 52 245 0.0 0.0 0.00 1.23 1.23 99 1022.3
20260502055418 52 245 0.0 0.0 0.00 1.23 1.23 99 1022.3
20260502054917 52 245 0.0 0.0 0.00 1.23 1.23 99 1022.3
20260502054414 52 245 0.0 0.0 0.00 1.23 1.23 99 1022.3
20260502053912 52 245 0.0 0.0 0.00 1.23 1.23 99 1022.1
20260502053409 52 245 0.0 0.0 0.00 1.23 1.23 99 1022.3
20260502052906 52 246 0.0 0.0 0.00 1.23 1.23 99 1022.2
20260502052405 52 245 0.0 0.0 0.00 1.23 1.23 99 1022.3
20260502051902 53 245 0.0 0.0 0.00 1.23 1.23 99 1022.1
20260502051400 52 245 0.0 0.0 0.00 1.23 1.23 99 1022.1
20260502050857 52 245 0.0 0.0 0.00 1.23 1.23 99 1022.1
20260502050353 53 246 0.0 0.0 0.00 1.23 1.23 99 1022.1
20260502045850 52 246 0.0 0.0 0.00 1.23 1.23 99 1021.7
20260502045347 53 245 0.0 0.0 0.00 1.23 1.23 99 1021.8
20260502044844 53 245 0.0 0.0 0.00 1.23 1.23 99 1021.8
20260502044340 53 245 0.0 0.0 0.00 1.23 1.23 99 1021.9
20260502043837 53 246 0.0 0.0 0.00 1.23 1.23 99 1022.0
20260502043335 52 246 0.0 0.0 0.00 1.23 1.23 99 1021.7
20260502042834 53 246 0.0 0.0 0.00 1.23 1.23 98 1021.9
20260502042332 53 246 0.0 0.0 0.00 1.23 1.23 98 1021.8
20260502041829 53 246 0.0 0.0 0.00 1.23 1.23 98 1021.8
20260502041326 53 246 0.0 0.0 0.00 1.23 1.23 98 1021.9
20260502040823 53 246 0.0 0.0 0.00 1.23 1.23 98 1022.1
20260502040320 53 246 0.0 0.0 0.00 1.23 1.23 98 1021.7
20260502035816 53 246 0.0 0.0 0.00 1.23 1.23 98 1021.9
20260502035313 53 245 1.0 2.0 0.00 1.23 1.23 98 1022.1
20260502034810 53 254 0.0 0.0 0.00 1.23 1.23 98 1021.9
20260502034309 54 240 0.0 0.0 0.00 1.23 1.23 98 1021.7
20260502033807 54 239 0.0 0.0 0.00 1.23 1.23 98 1021.6
20260502033304 54 250 0.0 0.0 0.00 1.23 1.23 98 1021.9
20260502032800 54 250 0.0 0.0 0.00 1.23 1.23 98 1022.0
20260502032257 54 251 0.0 0.0 0.00 1.23 1.23 98 1022.0
20260502031755 54 259 0.0 1.0 0.00 1.23 1.23 98 1021.9
20260502031252 54 241 0.0 0.0 0.00 1.23 1.23 98 1022.0
20260502030751 54 233 0.0 0.0 0.00 1.23 1.23 98 1022.0
20260502030248 54 253 0.0 0.0 0.00 1.23 1.23 98 1021.9
20260502025745 54 248 0.0 0.0 0.00 1.23 1.23 98 1021.7
20260502025243 54 239 0.0 0.0 0.00 1.23 1.23 99 1021.5
20260502024741 54 228 0.0 0.0 0.00 1.23 1.23 99 1021.4
20260502024238 54 209 0.0 0.0 0.00 1.23 1.23 99 1021.1
20260502023736 54 239 0.0 1.0 0.00 1.23 1.23 99 1021.1
20260502023234 54 208 0.0 1.0 0.00 1.23 1.23 99 1021.1
20260502022732 54 219 1.0 2.0 0.00 1.23 1.23 99 1021.1
20260502022227 54 236 0.0 0.0 0.00 1.23 1.23 99 1021.1
20260502021725 54 243 0.0 0.0 0.00 1.23 1.23 99 1020.9
20260502021222 54 228 0.0 0.0 0.00 1.23 1.23 99 1020.7
20260502020719 53 223 1.0 3.0 0.00 1.23 1.23 99 1020.5
20260502020216 53 217 0.0 0.0 0.00 1.23 1.23 99 1020.6
20260502015714 54 244 0.0 1.0 0.00 1.23 1.23 99 1020.6
20260502015210 54 246 0.0 0.0 0.00 1.23 1.23 99 1020.5
20260502014708 54 243 0.0 0.0 0.00 1.23 1.23 99 1020.4
20260502014205 54 232 0.0 0.0 0.00 1.23 1.23 99 1020.3
20260502013700 54 231 0.0 0.0 0.00 1.23 1.23 99 1020.2
20260502013155 54 246 1.0 1.0 0.00 1.23 1.23 99 1020.3
20260502012653 54 217 0.0 1.0 0.00 1.23 1.23 99 1020.1
20260502012152 54 228 0.0 1.0 0.00 1.23 1.23 99 1020.1
20260502011648 54 222 1.0 1.0 0.00 1.23 1.23 99 1019.9
20260502011143 54 244 0.0 0.0 0.00 1.23 1.23 99 1019.9
20260502010641 54 239 0.0 0.0 0.00 1.23 1.23 99 1019.9
20260502010138 54 232 0.0 0.0 0.00 1.23 1.23 99 1019.5
20260502005635 54 205 2.0 3.0 0.00 1.23 1.23 99 1019.8
20260502005133 54 226 1.0 2.0 0.00 1.23 1.23 99 1019.4
20260502004628 54 232 0.0 0.0 0.00 1.23 1.23 99 1019.2
20260502004125 54 221 1.0 2.0 0.00 1.23 1.23 99 1019.2
20260502003624 54 203 0.0 1.0 0.00 1.23 1.23 99 1019.0
20260502003120 54 184 1.0 2.0 0.00 1.23 1.23 99 1019.1
20260502002616 54 242 0.0 1.0 0.00 1.23 1.23 99 1019.0
20260502002114 54 224 0.0 1.0 0.00 1.23 1.23 99 1019.1
20260502001611 54 252 0.0 0.0 0.00 1.23 1.23 99 1018.9
20260502001108 53 194 0.0 2.0 0.00 1.23 1.23 99 1018.9
20260502000607 54 222 0.0 1.0 0.00 1.23 1.23 99 1018.8
20260501235559 54 281 4.0 6.0 0.00 1.23 1.23 99 1018.4
20260501235055 55 262 2.0 2.0 0.05 1.23 1.23 99 1018.1
20260501234551 55 237 0.0 0.0 0.05 1.23 1.23 99 1018.3
20260501234049 55 228 0.0 0.0 0.00 1.22 1.22 99 1018.1
20260501233547 55 221 0.0 2.0 0.00 1.22 1.22 99 1017.9
20260501233044 55 209 0.0 0.0 0.00 1.22 1.22 99 1018.1
20260501232540 56 224 0.0 0.0 0.00 1.22 1.22 99 1018.2
20260501232037 56 246 0.0 0.0 0.00 1.22 1.22 99 1018.2
20260501231535 56 247 0.0 0.0 0.00 1.22 1.22 99 1018.1
20260501231033 55 236 0.0 0.0 0.00 1.22 1.22 99 1017.9
20260501230532 56 240 1.0 1.0 0.00 1.22 1.22 99 1018.0
20260501230029 56 233 1.0 3.0 0.00 1.22 1.22 99 1017.7
20260501225526 56 236 0.0 0.0 0.00 1.22 1.22 99 1017.7
20260501225022 56 234 0.0 1.0 0.00 1.22 1.22 99 1017.6
20260501224520 56 252 0.0 0.0 0.00 1.22 1.22 99 1017.8
20260501224017 56 228 0.0 0.0 0.00 1.22 1.22 99 1017.9
20260501223513 56 252 0.0 0.0 0.00 1.22 1.22 99 1017.7
20260501223009 56 251 0.0 0.0 0.00 1.22 1.22 99 1017.9
20260501222506 56 246 1.0 2.0 0.00 1.22 1.22 99 1017.9
20260501222003 56 231 0.0 0.0 0.07 1.22 1.22 99 1017.5
20260501221459 56 285 2.0 3.0 0.07 1.22 1.22 99 1017.4
20260501220957 57 230 0.0 0.0 0.00 1.21 1.21 99 1017.5
20260501220455 57 240 0.0 0.0 0.05 1.21 1.21 99 1017.8
20260501215951 57 217 0.0 0.0 0.12 1.21 1.21 99 1017.6
20260501215448 56 209 0.0 0.0 0.19 1.20 1.20 99 1017.3
20260501214943 56 205 1.0 2.0 0.17 1.19 1.19 99 1017.4
20260501214438 56 250 0.0 0.0 0.12 1.18 1.18 99 1017.2
20260501213934 56 227 1.0 1.0 0.12 1.17 1.17 99 1017.2
20260501213432 57 218 1.0 2.0 0.19 1.15 1.15 99 1017.5
20260501212927 57 248 0.0 0.0 0.24 1.15 1.15 99 1017.8
20260501212424 57 219 0.0 0.0 0.19 1.13 1.13 99 1017.8
20260501211920 57 256 1.0 1.0 0.19 1.11 1.11 99 1017.7
20260501211418 57 259 0.0 1.0 0.07 1.09 1.09 99 1017.1
20260501210915 57 227 0.0 0.0 0.07 1.09 1.09 99 1016.7
20260501210412 57 212 1.0 1.0 0.00 1.08 1.08 99 1016.3
20260501205909 57 236 0.0 0.0 0.00 1.08 1.08 99 1016.5
20260501205406 57 243 0.0 0.0 0.00 1.08 1.08 99 1016.5
20260501204903 58 243 1.0 2.0 0.00 1.08 1.08 99 1016.5
20260501204358 58 247 0.0 0.0 0.00 1.08 1.08 99 1016.3
20260501203854 58 208 1.0 2.0 0.00 1.08 1.08 99 1015.7
20260501203352 58 241 0.0 0.0 0.00 1.08 1.08 99 1015.6
20260501202849 58 231 0.0 0.0 0.00 1.08 1.08 99 1016.0
20260501202346 58 316 1.0 2.0 0.05 1.08 1.08 99 1015.3
20260501201843 58 256 1.0 1.0 0.05 1.08 1.08 99 1015.8
20260501201339 58 257 1.0 2.0 0.00 1.07 1.07 99 1016.2
20260501200836 58 259 0.0 1.0 0.00 1.07 1.07 99 1015.6
20260501200333 58 220 1.0 2.0 0.00 1.07 1.07 99 1015.5
20260501195831 58 224 3.0 3.0 0.00 1.07 1.07 99 1014.5
20260501195326 58 154 0.0 1.0 0.00 1.07 1.07 99 1014.9
20260501194823 59 240 3.0 6.0 0.00 1.07 1.07 99 1014.9
20260501194319 58 215 1.0 2.0 0.00 1.07 1.07 99 1015.5
20260501193815 59 233 0.0 0.0 0.07 1.07 1.07 99 1015.8
20260501193314 59 241 0.0 1.0 0.07 1.07 1.07 99 1016.0
20260501192811 58 257 0.0 0.0 0.12 1.07 1.07 99 1015.1
20260501192308 58 201 0.0 1.0 0.17 1.06 1.06 99 1015.6
20260501191805 59 223 0.0 0.0 0.19 1.05 1.05 99 1015.7
20260501191303 59 225 0.0 0.0 0.14 1.03 1.03 99 1016.4
20260501190759 58 243 0.0 0.0 0.07 1.02 1.02 99 1016.5
20260501190255 58 191 0.0 1.0 0.00 1.01 1.01 99 1017.4
20260501185750 58 255 2.0 2.0 0.00 1.01 1.01 99 1016.8
20260501185246 58 227 2.0 3.0 0.00 1.01 1.01 99 1015.6
20260501184743 58 252 2.0 3.0 0.00 1.01 1.01 99 1015.1
20260501184238 58 150 3.0 5.0 0.00 1.01 1.01 99 1015.0
20260501183734 59 272 1.0 5.0 0.00 1.01 1.01 99 1015.1
20260501183232 60 198 2.0 3.0 0.00 1.01 1.01 99 1015.3
20260501182728 59 215 0.0 1.0 0.00 1.01 1.01 99 1015.6
20260501182225 59 308 0.0 0.0 0.05 1.01 1.01 99 1016.4
20260501181722 59 231 0.0 0.0 0.12 1.01 1.01 99 1016.8
20260501181219 59 208 0.0 0.0 0.40 1.01 1.01 99 1017.3
20260501180717 59 281 3.0 5.0 0.78 0.99 0.99 99 1017.9
20260501180212 59 258 0.0 0.0 0.97 0.94 0.94 99 1018.6
20260501175709 58 216 0.0 0.0 0.78 0.88 0.88 99 1019.1
20260501175207 58 253 2.0 3.0 0.31 0.79 0.79 99 1018.9
20260501174703 58 250 0.0 1.0 0.05 0.75 0.75 99 1018.7
20260501174200 59 220 0.0 0.0 0.00 0.74 0.74 99 1017.6
20260501173658 59 235 0.0 0.0 0.00 0.74 0.74 99 1016.8
20260501173155 59 212 0.0 1.0 0.07 0.74 0.74 99 1016.5
20260501172651 59 154 1.0 2.0 0.12 0.74 0.74 99 1016.1
20260501172146 59 197 2.0 3.0 0.12 0.74 0.74 99 1015.9
20260501171642 58 179 1.0 5.0 0.00 0.72 0.72 99 1015.8
20260501171139 58 186 3.0 5.0 0.00 0.72 0.72 99 1016.0
20260501170636 59 212 0.0 1.0 0.00 0.72 0.72 99 1016.7
20260501170133 59 238 1.0 1.0 0.00 0.72 0.72 99 1016.1
20260501165631 59 210 2.0 3.0 0.00 0.72 0.72 99 1015.9
20260501165127 59 191 3.0 3.0 0.00 0.72 0.72 99 1015.6
20260501164626 59 242 1.0 1.0 0.00 0.72 0.72 99 1015.7
20260501164122 59 300 0.0 0.0 0.00 0.72 0.72 99 1016.0
20260501163619 59 207 0.0 1.0 0.00 0.72 0.72 99 1015.7
20260501163116 60 217 3.0 5.0 0.00 0.72 0.72 99 1015.9
20260501162612 59 123 1.0 2.0 0.00 0.72 0.72 99 1015.8
20260501162109 59 248 0.0 0.0 0.00 0.72 0.72 99 1015.8
20260501161606 59 182 2.0 3.0 0.00 0.72 0.72 99 1015.8
20260501161103 59 104 4.0 7.0 0.00 0.72 0.72 99 1015.9